Fulton, NY

4:50 AM EDT on April 25, 2018 (GMT -0400)
Oswego County

Weather History for KFZY - March, 2014

Change the Weather History Date:

Sunday, March 9, 2014

  Actual Average (KSYR) Record (KSYR)
Temperature  
Mean Temperature 24 °F -  
Max Temperature 30 °F 38 °F 78 °F (2000)
Min Temperature 19 °F 20 °F -6 °F (1943)
Degree Days  
Heating Degree Days 40    
Moisture  
Dew Point 14 °F    
Average Humidity 62    
Maximum Humidity 81    
Minimum Humidity 47    
Precipitation  
Precipitation 0.00 in - - ()
Sea Level Pressure  
Sea Level Pressure 30.01 in    
Wind  
Wind Speed 8 mph (WNW)    
Max Wind Speed 16 mph    
Max Gust Speed 24 mph    
Visibility 10 miles    
Events Snow    
Averages and records for this station are not official NWS values.
T = Trace of Precipitation, MM = Missing Value Source: NWS Daily Summary

Daily Weather History Graph

Daily Weather History Graph

Search for Another Location

Airport or City:

Astronomy

Mar. 09, 2014 Rise Set
Actual Time 7:28 AM EDT 7:04 PM EDT
Civil Twilight 6:59 AM EDT 7:33 PM EDT
Nautical Twilight 6:26 AM EDT 8:06 PM EDT
Astronomical Twilight 5:53 AM EDT 8:39 PM EDT
Moon 12:48 PM EDT (3/9) 3:59 AM EDT (3/9)
Length of Visible Light 12h 33m
Length of Day
11h 36m
First Quarter, 61% of the Moon is Illuminated
Mar 9
First Quarter
Mar 16
Full
Mar 23
Last Quarter
Mar 30
New
Apr 7
First Quarter

Hourly Weather History & Observations

Time (EDT) Temp. Windchill Dew Point Humidity Pressure Visibility Wind Dir Wind Speed Gust Speed Precip Events Conditions
12:54 AM 26.1 °F 20.5 °F 21.0 °F 81% 29.99 in 8.0 mi SW 4.6 mph - N/A   Overcast
1:41 AM 28.0 °F 21.7 °F 21.9 °F 78% 29.97 in 10.0 mi WNW 5.8 mph - N/A   Overcast
1:54 AM 27.0 °F 19.5 °F 21.9 °F 81% 29.99 in 10.0 mi NW 6.9 mph - N/A   Overcast
3:12 AM 28.0 °F 18.1 °F 19.9 °F 72% 29.97 in 10.0 mi WNW 11.5 mph - N/A   Overcast
3:54 AM 28.0 °F 18.6 °F 19.0 °F 69% 29.99 in 10.0 mi WNW 10.4 mph - N/A   Overcast
4:46 AM 25.0 °F 18.1 °F 16.0 °F 69% 29.98 in 10.0 mi North 5.8 mph - N/A   Overcast
4:54 AM 25.0 °F 18.1 °F 16.0 °F 69% 30.00 in 10.0 mi North 5.8 mph - N/A   Overcast
5:38 AM 23.0 °F 14.7 °F 10.9 °F 60% 30.00 in 10.0 mi North 6.9 mph - N/A   Scattered Clouds
5:54 AM 21.9 °F 14.5 °F 10.0 °F 60% 30.02 in 10.0 mi NNW 5.8 mph - N/A   Clear
6:54 AM 19.0 °F 9.0 °F 8.1 °F 62% 30.05 in 10.0 mi NW 8.1 mph - N/A   Overcast
7:54 AM 19.0 °F 8.2 °F 8.1 °F 62% 30.09 in 10.0 mi NW 9.2 mph - N/A   Mostly Cloudy
8:54 AM 19.9 °F 13.4 °F 8.1 °F 60% 30.11 in 10.0 mi NNW 4.6 mph - N/A   Partly Cloudy
9:54 AM 21.9 °F 11.0 °F 7.0 °F 53% 30.13 in 10.0 mi NW 10.4 mph - N/A   Clear
10:54 AM 24.1 °F 15.2 °F 8.1 °F 51% 30.13 in 10.0 mi NW 8.1 mph - N/A   Clear
11:54 AM 26.1 °F 15.0 °F 8.1 °F 47% 30.13 in 10.0 mi WNW 12.7 mph - N/A   Clear
12:54 PM 27.0 °F 14.7 °F 9.0 °F 47% 30.12 in 10.0 mi West 16.1 mph 24.2 mph N/A   Scattered Clouds
1:54 PM 26.1 °F 14.0 °F 16.0 °F 66% 30.10 in 5.0 mi West 15.0 mph - 0.00 in Snow Light Snow
2:04 PM 26.1 °F 15.0 °F 15.1 °F 63% 30.07 in 9.0 mi West 12.7 mph - 0.00 in   Overcast
2:54 PM 28.0 °F 16.1 °F 14.0 °F 56% 30.07 in 10.0 mi West 16.1 mph 20.7 mph 0.00 in   Scattered Clouds
3:54 PM 28.0 °F 16.5 °F 15.1 °F 58% 30.05 in 10.0 mi West 15.0 mph - N/A   Mostly Cloudy
4:54 PM 28.9 °F 20.4 °F 15.1 °F 56% 30.03 in 10.0 mi WNW 9.2 mph - N/A   Clear
5:54 PM 28.0 °F 20.0 °F 14.0 °F 56% 30.01 in 10.0 mi West 8.1 mph - N/A   Clear
6:54 PM 28.0 °F 21.7 °F 14.0 °F 56% 29.99 in 10.0 mi West 5.8 mph - N/A   Overcast
7:54 PM 28.0 °F - 15.1 °F 58% 29.97 in 10.0 mi Calm Calm - N/A   Overcast
8:54 PM 27.0 °F - 16.0 °F 63% 29.94 in 10.0 mi Calm Calm - N/A   Overcast
9:54 PM 27.0 °F 20.5 °F 16.0 °F 63% 29.92 in 10.0 mi SSE 5.8 mph - N/A   Overcast
10:54 PM 28.9 °F 22.8 °F 16.0 °F 58% 29.87 in 10.0 mi WSW 5.8 mph - N/A   Overcast
11:54 PM 30.0 °F 24.1 °F 17.1 °F 59% 29.81 in 10.0 mi SSE 5.8 mph - N/A   Overcast
12:54 AM 30.0 °F - 17.1 °F 59% 29.83 in 10.0 mi Calm Calm - N/A   Overcast